Weather in Garachico

Spain     28°22′30″N   16°45′50″W
temp.,
°C
wind,
m/s
gust,
m/s
humid.,
%
clouds,
%
prec.,
mm/h
press.,
hPa
HPBL,
m
16 may, sun
sun1601:00+20ene79780 0.0 1019666
04:00+19ene79780 0.0 1018659
07:00+20ene8107797 0.0 1018685
10:00+20ene8107996 0.0 1019585
13:00+20ne81082100 0.0 1019499
16:00+20ne9118479 0.0 1019483
19:00+20ne910866 0.0 1018459
22:00+20ene9118693 0.0 1019489
17 may, mon
mon1701:00+20ene101385100 0.0 1019541
04:00+20ene10138331 0.0 1018532
07:00+20ene10128197 0.0 1019494
10:00+20ne101181100 0.0 1020531
13:00+20ne101283100 0.0 1021480
16:00+20ne11138439 0.0 1019475
19:00+20ne1012848 0.0 1019414
22:00+20ene11138435 0.0 1020509
18 may, tue
tue1801:00+20ene10148198 0.0 1020529
04:00+20ene101383100 0.0 1020632
07:00+20ene101379100 0.0 1020568
10:00+20ene11137999 0.0 1021590
13:00+20ne10138172 0.0 1021512
16:00+20ne111380100 0.0 1021519
19:00+20ene1013810 0.0 1021528
22:00+20ene1012783 0.0 1022484
19 may, wed
wed1901:00+20ene1012810 0.0 1022604
04:00+20ene912800 0.0 1021707
07:00+20ene1012770 0.0 1021681
10:00+20ene811790 0.0 1021650
13:00+20ene9128514 0.0 1021622
16:00+20ne9108521 0.0 1020608
19:00+20ene89820 0.0 1020650
22:00+20ene810754 0.0 1021727
20 may, thu
thu2001:00+20ene810730 0.0 1020753
04:00+19ene89750 0.0 1019752
07:00+19ene910760 0.0 1018761
10:00+19ene910760 0.0 1019732
13:00+19ne910789 0.0 1019609
16:00+20ne910806 0.0 1018552
19:00+20ne89800 0.0 1018560
22:00+20ene78787 0.0 1019518